Weather History for KMRH - April, 2013

Change the Weather History Date:

Tuesday, April 16, 2013

  Actual Average Record
Temperature  
Mean Temperature 68 °F -  
Max Temperature 75 °F 71 °F 82 °F (1967)
Min Temperature 62 °F 52 °F 35 °F (1950)
Cooling Degree Days 4    
Growing Degree Days 18 (Base 50)    
Moisture  
Dew Point 61 °F    
Average Humidity 85    
Maximum Humidity 100    
Minimum Humidity 57    
Precipitation  
Precipitation 0.00 in - - ()
Sea Level Pressure  
Sea Level Pressure 30.23 in    
Wind  
Wind Speed 5 mph (ENE)    
Max Wind Speed 9 mph    
Max Gust Speed -    
Visibility 8 miles    
Events Rain    
Averages and records for this station are not official NWS values.
T = Trace of Precipitation, MM = Missing Value Source: NWS Daily Summary

Daily Weather History Graph

Daily Weather History Graph

Search for Another Location

Airport or City:

Trip Planner

Search our weather history database for the weather conditions in past years. The results will help you decide how hot, cold, wet, or windy it might be!

Date:

Astronomy

Apr. 16, 2013 Rise Set
Actual Time 6:33 AM EDT 7:39 PM EDT
Civil Twilight 6:07 AM EDT 8:05 PM EDT
Nautical Twilight 5:36 AM EDT 8:36 PM EDT
Astronomical Twilight 5:04 AM EDT 9:09 PM EDT
Moon 10:56 AM EDT (4/16) 12:29 AM EDT (4/16)
Length of Visible Light 13h 58m
Length of Day
13h 06m
Waxing Crescent, 33% of the Moon is Illuminated
Apr 16
Waxing Crescent
Apr 18
First Quarter
Apr 25
Full
May 2
Last Quarter
May 9
New

Hourly Weather History & Observations

Time (EDT) Temp. Dew Point Humidity Pressure Visibility Wind Dir Wind Speed Gust Speed Precip Events Conditions
12:58 AM 63.0 °F 61.0 °F 93% 30.20 in 9.0 mi NE 4.6 mph - N/A   Overcast
1:25 AM 62.6 °F 60.8 °F 94% 30.19 in 8.0 mi NE 4.6 mph - N/A   Overcast
1:36 AM 62.6 °F 60.8 °F 94% 30.19 in 8.0 mi NE 5.8 mph - N/A   Overcast
1:58 AM 63.0 °F 61.0 °F 93% 30.19 in 6.0 mi NE 5.8 mph - N/A   Overcast
2:12 AM 62.6 °F 60.8 °F 94% 30.18 in 7.0 mi NE 4.6 mph - N/A   Overcast
2:36 AM 62.6 °F 60.8 °F 94% 30.18 in 7.0 mi NE 5.8 mph - N/A   Overcast
2:58 AM 63.0 °F 61.0 °F 93% 30.19 in 7.0 mi NE 4.6 mph - N/A   Overcast
3:58 AM 63.0 °F 62.1 °F 97% 30.19 in 6.0 mi NNE 4.6 mph - N/A   Overcast
4:10 AM 62.6 °F 62.6 °F 100% 30.19 in 7.0 mi NNE 3.5 mph - N/A   Overcast
4:20 AM 62.6 °F 62.6 °F 100% 30.20 in 7.0 mi NE 4.6 mph - N/A   Overcast
4:39 AM 62.6 °F 62.6 °F 100% 30.20 in 9.0 mi ENE 4.6 mph - N/A   Overcast
4:58 AM 64.0 °F 62.1 °F 93% 30.20 in 8.0 mi NE 4.6 mph - N/A   Overcast
5:41 AM 64.4 °F 62.6 °F 94% 30.21 in 8.0 mi NNE 4.6 mph - 0.00 in   Overcast
5:55 AM 64.4 °F 62.6 °F 94% 30.21 in 6.0 mi NE 4.6 mph - 0.00 in   Overcast
5:58 AM 64.0 °F 63.0 °F 96% 30.21 in 5.0 mi NE 5.8 mph - 0.00 in Rain Light Rain
6:25 AM 64.4 °F 62.6 °F 94% 30.22 in 6.0 mi NE 4.6 mph - 0.00 in   Overcast
6:58 AM 64.0 °F 63.0 °F 96% 30.22 in 6.0 mi NNE 3.5 mph - 0.00 in   Overcast
7:58 AM 64.9 °F 64.0 °F 97% 30.25 in 10.0 mi Calm Calm - N/A   Overcast
8:43 AM 64.4 °F 62.6 °F 94% 30.25 in 8.0 mi NE 8.1 mph - N/A   Overcast
8:58 AM 66.0 °F 64.0 °F 93% 30.25 in 8.0 mi NE 6.9 mph - N/A   Overcast
9:58 AM 68.0 °F 64.0 °F 87% 30.27 in 10.0 mi NNE 6.9 mph - N/A   Overcast
10:58 AM 71.1 °F 64.0 °F 78% 30.28 in 10.0 mi NE 4.6 mph - N/A   Overcast
11:58 AM 73.0 °F 62.1 °F 68% 30.28 in 10.0 mi Variable 4.6 mph - N/A   Overcast
12:58 PM 75.0 °F 61.0 °F 62% 30.28 in 10.0 mi ESE 5.8 mph - N/A   Overcast
1:58 PM 75.0 °F 61.0 °F 62% 30.26 in 10.0 mi East 8.1 mph - N/A   Overcast
2:58 PM 73.9 °F 60.1 °F 62% 30.25 in 10.0 mi East 8.1 mph - N/A   Scattered Clouds
3:58 PM 73.9 °F 60.1 °F 62% 30.24 in 10.0 mi ESE 8.1 mph - N/A   Clear
4:58 PM 73.0 °F 57.9 °F 59% 30.24 in 10.0 mi ESE 9.2 mph - N/A   Mostly Cloudy
5:58 PM 72.0 °F 55.9 °F 57% 30.24 in 10.0 mi East 9.2 mph - N/A   Clear
6:58 PM 70.0 °F 59.0 °F 68% 30.23 in 10.0 mi East 6.9 mph - N/A   Clear
7:58 PM 66.9 °F 60.1 °F 79% 30.24 in 10.0 mi East 3.5 mph - N/A   Clear
8:58 PM 66.0 °F 61.0 °F 84% 30.25 in 10.0 mi Calm Calm - N/A   Clear
9:58 PM 64.9 °F 61.0 °F 87% 30.26 in 10.0 mi East 3.5 mph - N/A   Clear
10:58 PM 64.0 °F 60.1 °F 87% 30.25 in 10.0 mi ESE 3.5 mph - N/A   Clear
11:58 PM 64.0 °F 60.1 °F 87% 30.24 in 10.0 mi SE 4.6 mph - N/A   Clear